QPF
0.01 0.00 0.00 0.00 0.00 0.00 0.00 0.00 0.00 0.00 0.00 0.00 0.00 0.00 0.00 0.00 0.00 0.00 0.00 0.00 0.00 0.00 0.00 0.00 0.01 0.01 0.01 0.01 0.01 0.01 0.01 0.01 0.01 0.01 0.01 0.01 0.01 0.02 0.02 0.02 0.01 0.00 0.01
0.01 0.00 0.00 0.00 0.00 0.00 0.00 0.00 0.00 0.00 0.00 0.00 0.00 0.00 0.00 0.00 0.00 0.00 0.00 0.00 0.00 0.00 0.00 0.00 0.00 0.00 0.00 0.00 0.00 0.00 0.00 0.01 0.01 0.02 0.02 0.02 0.02 0.02 0.02 0.01 0.01 0.00 0.00
0.02 0.00 0.00 0.00 0.00 0.00 0.00 0.00 0.00 0.00 0.00 0.00 0.00 0.00 0.00 0.00 0.00 0.00 0.00 0.00 0.00 0.00 0.00 0.00 0.00 0.00 0.00 0.00 0.00 0.00 0.00 0.01 0.02 0.04 0.04 0.02 0.01 0.01 0.01 0.01 0.00 0.00 0.00
0.02 0.01 0.00 0.00 0.00 0.00 0.00 0.00 0.00 0.00 0.00 0.00 0.00 0.00 0.00 0.00 0.00 0.00 0.00 0.00 0.00 0.00 0.00 0.00 0.00 0.00 0.00 0.00 0.00 0.00 0.00 0.01 0.04 0.07 0.06 0.03 0.02 0.01 0.01 0.00 0.00 0.00 0.00
0.01 0.00 0.00 0.00 0.00 0.00 0.00 0.00 0.00 0.00 0.01 0.00 0.00 0.00 0.00 0.00 0.00 0.00 0.00 0.00 0.00 0.00 0.00 0.00 0.00 0.00 0.00 0.00 0.00 0.00 0.01 0.02 0.05 0.09 0.10 0.06 0.03 0.02 0.01 0.00 0.00 0.00 0.00
0.02 0.01 0.00 0.00 0.00 0.00 0.00 0.00 0.00 0.01 0.01 0.01 0.00 0.01 0.01 0.00 0.00 0.00 0.00 0.00 0.00 0.00 0.00 0.00 0.00 0.00 0.00 0.00 0.00 0.00 0.01 0.03 0.05 0.08 0.15 0.09 0.05 0.03 0.02 0.00 0.00 0.00 0.00
0.01 0.01 0.01 0.00 0.00 0.00 0.00 0.01 0.01 0.01 0.01 0.01 0.01 0.01 0.01 0.00 0.00 0.00 0.00 0.00 0.00 0.00 0.00 0.00 0.00 0.00 0.00 0.00 0.00 0.01 0.02 0.05 0.06 0.07 0.09 0.11 0.06 0.04 0.01 0.01 0.00 0.00 0.00
0.01 0.01 0.00 0.00 0.00 0.00 0.00 0.01 0.01 0.02 0.02 0.02 0.01 0.01 0.01 0.00 0.00 0.00 0.00 0.00 0.00 0.00 0.01 0.00 0.00 0.00 0.00 0.00 0.00 0.01 0.02 0.03 0.05 0.08 0.11 0.10 0.06 0.04 0.01 0.00 0.00 0.00 0.00
0.01 0.01 0.00 0.00 0.00 0.00 0.00 0.01 0.01 0.03 0.03 0.02 0.02 0.02 0.01 0.01 0.01 0.01 0.01 0.00 0.00 0.00 0.01 0.01 0.01 0.01 0.00 0.00 0.00 0.01 0.01 0.03 0.04 0.07 0.09 0.08 0.07 0.06 0.03 0.01 0.00 0.00 0.00
0.01 0.01 0.00 0.00 0.00 0.00 0.00 0.01 0.01 0.04 0.04 0.02 0.02 0.02 0.02 0.01 0.01 0.01 0.01 0.01 0.01 0.01 0.01 0.01 0.01 0.01 0.01 0.01 0.00 0.01 0.02 0.02 0.04 0.08 0.11 0.08 0.08 0.07 0.05 0.02 0.01 0.01 0.00
0.01 0.01 0.01 0.01 0.01 0.01 0.00 0.01 0.01 0.03 0.05 0.03 0.02 0.03 0.02 0.02 0.02 0.02 0.02 0.02 0.02 0.02 0.01 0.01 0.01 0.01 0.01 0.01 0.01 0.02 0.02 0.02 0.05 0.08 0.10 0.08 0.09 0.08 0.05 0.03 0.02 0.01 0.01
0.02 0.02 0.03 0.03 0.03 0.02 0.01 0.01 0.01 0.01 0.02 0.02 0.02 0.02 0.02 0.03 0.03 0.04 0.05 0.06 0.05 0.03 0.03 0.02 0.02 0.02 0.01 0.01 0.02 0.03 0.03 0.03 0.06 0.13 0.13 0.12 0.11 0.09 0.06 0.04 0.03 0.02 0.01
0.06 0.04 0.04 0.04 0.04 0.05 0.05 0.03 0.03 0.02 0.03 0.04 0.05 0.05 0.04 0.05 0.08 0.09 0.07 0.09 0.10 0.08 0.06 0.05 0.04 0.03 0.04 0.04 0.05 0.05 0.07 0.08 0.12 0.15 0.14 0.13 0.12 0.10 0.08 0.05 0.03 0.03 0.02
0.05 0.06 0.07 0.08 0.07 0.11 0.17 0.15 0.06 0.06 0.05 0.06 0.08 0.07 0.09 0.12 0.14 0.14 0.12 0.13 0.12 0.10 0.10 0.08 0.08 0.08 0.12 0.10 0.10 0.11 0.10 0.12 0.14 0.17 0.11 0.10 0.11 0.11 0.10 0.07 0.05 0.04 0.03
0.06 0.07 0.08 0.11 0.11 0.12 0.17 0.19 0.10 0.10 0.08 0.11 0.20 0.17 0.17 0.18 0.15 0.15 0.17 0.15 0.14 0.12 0.10 0.10 0.11 0.11 0.16 0.14 0.14 0.14 0.12 0.12 0.13 0.15 0.10 0.10 0.09 0.12 0.14 0.11 0.07 0.06 0.05
0.07 0.09 0.11 0.15 0.23 0.19 0.18 0.18 0.14 0.11 0.10 0.12 0.15 0.17 0.17 0.17 0.16 0.14 0.16 0.15 0.14 0.14 0.14 0.13 0.09 0.10 0.11 0.14 0.19 0.19 0.11 0.09 0.11 0.15 0.14 0.11 0.10 0.10 0.11 0.10 0.09 0.07 0.07
0.05 0.07 0.10 0.14 0.22 0.22 0.18 0.14 0.17 0.19 0.16 0.17 0.18 0.17 0.13 0.12 0.15 0.16 0.17 0.15 0.15 0.15 0.15 0.11 0.07 0.08 0.08 0.08 0.11 0.15 0.14 0.14 0.11 0.09 0.14 0.14 0.09 0.09 0.08 0.09 0.10 0.09 0.08
0.03 0.05 0.08 0.09 0.14 0.19 0.14 0.14 0.15 0.20 0.21 0.19 0.17 0.15 0.11 0.12 0.15 0.14 0.15 0.14 0.14 0.14 0.15 0.15 0.11 0.09 0.07 0.07 0.08 0.08 0.10 0.17 0.13 0.07 0.09 0.10 0.07 0.07 0.09 0.08 0.09 0.09 0.09
0.02 0.03 0.05 0.05 0.08 0.12 0.10 0.11 0.14 0.18 0.18 0.18 0.15 0.15 0.15 0.16 0.16 0.13 0.13 0.13 0.14 0.13 0.14 0.14 0.15 0.10 0.08 0.08 0.08 0.07 0.07 0.11 0.13 0.08 0.07 0.07 0.07 0.06 0.07 0.07 0.09 0.09 0.10
0.03 0.03 0.03 0.03 0.05 0.06 0.07 0.08 0.07 0.08 0.08 0.12 0.12 0.13 0.14 0.14 0.14 0.14 0.16 0.17 0.14 0.13 0.13 0.12 0.12 0.09 0.07 0.08 0.07 0.07 0.08 0.08 0.08 0.10 0.08 0.08 0.07 0.06 0.07 0.07 0.08 0.08 0.10
0.03 0.02 0.03 0.04 0.05 0.06 0.07 0.09 0.07 0.06 0.05 0.08 0.09 0.10 0.11 0.12 0.13 0.14 0.13 0.13 0.11 0.12 0.12 0.10 0.10 0.11 0.10 0.09 0.08 0.07 0.06 0.07 0.07 0.06 0.07 0.09 0.09 0.08 0.07 0.08 0.07 0.07 0.08
0.02 0.02 0.02 0.02 0.04 0.03 0.04 0.06 0.08 0.07 0.06 0.07 0.08 0.08 0.09 0.10 0.13 0.13 0.11 0.12 0.10 0.10 0.09 0.09 0.09 0.09 0.09 0.09 0.09 0.10 0.08 0.07 0.05 0.05 0.06 0.07 0.07 0.07 0.06 0.05 0.05 0.05 0.07
0.02 0.01 0.01 0.01 0.02 0.02 0.02 0.03 0.04 0.04 0.04 0.06 0.05 0.06 0.07 0.08 0.11 0.12 0.11 0.10 0.10 0.08 0.08 0.09 0.10 0.11 0.10 0.10 0.09 0.10 0.10 0.08 0.07 0.05 0.03 0.04 0.05 0.05 0.06 0.06 0.07 0.09 0.08
0.02 0.02 0.01 0.00 0.01 0.01 0.01 0.01 0.02 0.02 0.04 0.05 0.06 0.07 0.07 0.08 0.08 0.08 0.09 0.08 0.09 0.08 0.08 0.07 0.07 0.08 0.07 0.08 0.09 0.08 0.07 0.06 0.06 0.05 0.03 0.04 0.05 0.05 0.05 0.06 0.08 0.12 0.13
0.02 0.01 0.01 0.00 0.00 0.00 0.00 0.01 0.01 0.02 0.03 0.05 0.05 0.07 0.08 0.08 0.07 0.08 0.08 0.05 0.06 0.06 0.05 0.05 0.05 0.05 0.05 0.05 0.05 0.07 0.07 0.06 0.06 0.05 0.03 0.02 0.03 0.04 0.04 0.04 0.05 0.06 0.08
0.02 0.01 0.01 0.00 0.00 0.00 0.00 0.01 0.01 0.02 0.02 0.03 0.04 0.06 0.08 0.08 0.06 0.05 0.04 0.03 0.04 0.04 0.03 0.03 0.04 0.03 0.03 0.04 0.04 0.04 0.06 0.06 0.05 0.06 0.05 0.03 0.03 0.03 0.04 0.04 0.04 0.04 0.05
MSLP
1013.53 1013.15 1012.96 1013.03 1013.33 1013.80 1014.32 1014.78 1015.09 1015.23 1015.21 1015.12 1015.03 1015.04 1015.19 1015.48 1015.88 1016.32 1016.73 1017.07 1017.32 1017.48 1017.59 1017.67 1017.78 1017.91 1018.07 1018.23 1018.38 1018.51 1018.59 1018.65 1018.70 1018.77 1018.85 1018.97 1019.11 1019.25 1019.39 1019.50 1019.58 1019.64 1019.69
1013.12 1012.90 1012.85 1013.03 1013.41 1013.92 1014.45 1014.89 1015.19 1015.32 1015.34 1015.30 1015.29 1015.38 1015.60 1015.93 1016.33 1016.74 1017.10 1017.37 1017.55 1017.65 1017.72 1017.79 1017.89 1018.03 1018.20 1018.36 1018.51 1018.61 1018.67 1018.71 1018.75 1018.82 1018.93 1019.07 1019.25 1019.43 1019.59 1019.72 1019.81 1019.88 1019.93
1012.67 1012.59 1012.68 1012.98 1013.44 1014.00 1014.54 1014.98 1015.28 1015.44 1015.49 1015.52 1015.59 1015.76 1016.03 1016.38 1016.77 1017.13 1017.41 1017.59 1017.69 1017.74 1017.77 1017.83 1017.94 1018.09 1018.26 1018.42 1018.55 1018.64 1018.68 1018.71 1018.75 1018.83 1018.96 1019.14 1019.35 1019.56 1019.74 1019.88 1019.98 1020.05 1020.10
1012.26 1012.31 1012.53 1012.94 1013.48 1014.08 1014.64 1015.10 1015.41 1015.59 1015.69 1015.77 1015.91 1016.13 1016.43 1016.78 1017.13 1017.43 1017.63 1017.74 1017.77 1017.77 1017.78 1017.84 1017.96 1018.12 1018.30 1018.46 1018.58 1018.65 1018.68 1018.70 1018.74 1018.84 1018.99 1019.19 1019.42 1019.64 1019.83 1019.98 1020.07 1020.13 1020.19
1011.97 1012.13 1012.47 1012.97 1013.58 1014.22 1014.79 1015.25 1015.57 1015.76 1015.89 1016.02 1016.20 1016.45 1016.76 1017.09 1017.40 1017.63 1017.76 1017.80 1017.79 1017.77 1017.79 1017.86 1018.00 1018.19 1018.38 1018.54 1018.64 1018.70 1018.71 1018.72 1018.76 1018.86 1019.03 1019.24 1019.47 1019.69 1019.87 1020.00 1020.08 1020.13 1020.19
1011.85 1012.11 1012.53 1013.11 1013.76 1014.42 1014.99 1015.43 1015.74 1015.94 1016.08 1016.23 1016.43 1016.69 1016.99 1017.29 1017.55 1017.73 1017.81 1017.82 1017.79 1017.78 1017.82 1017.93 1018.11 1018.32 1018.52 1018.68 1018.77 1018.80 1018.80 1018.79 1018.82 1018.92 1019.08 1019.28 1019.50 1019.70 1019.86 1019.96 1020.02 1020.06 1020.11
1011.92 1012.25 1012.74 1013.35 1014.03 1014.67 1015.22 1015.63 1015.90 1016.08 1016.22 1016.37 1016.57 1016.83 1017.11 1017.39 1017.61 1017.75 1017.81 1017.81 1017.80 1017.82 1017.91 1018.07 1018.29 1018.52 1018.73 1018.88 1018.96 1018.96 1018.93 1018.90 1018.91 1018.99 1019.13 1019.31 1019.50 1019.67 1019.79 1019.87 1019.91 1019.94 1020.00
1012.14 1012.51 1013.04 1013.68 1014.34 1014.94 1015.44 1015.80 1016.03 1016.18 1016.31 1016.45 1016.65 1016.90 1017.17 1017.42 1017.61 1017.73 1017.79 1017.80 1017.83 1017.90 1018.04 1018.25 1018.50 1018.76 1018.98 1019.11 1019.16 1019.13 1019.07 1019.01 1018.99 1019.04 1019.15 1019.31 1019.47 1019.60 1019.70 1019.75 1019.77 1019.80 1019.87
1012.42 1012.84 1013.38 1014.01 1014.64 1015.19 1015.63 1015.93 1016.11 1016.24 1016.35 1016.49 1016.69 1016.94 1017.19 1017.43 1017.61 1017.73 1017.78 1017.82 1017.88 1017.99 1018.18 1018.43 1018.71 1018.98 1019.19 1019.30 1019.32 1019.27 1019.17 1019.08 1019.04 1019.06 1019.14 1019.26 1019.39 1019.50 1019.57 1019.61 1019.64 1019.68 1019.76
1012.72 1013.15 1013.70 1014.30 1014.88 1015.37 1015.74 1015.99 1016.15 1016.26 1016.37 1016.54 1016.75 1017.00 1017.26 1017.48 1017.65 1017.76 1017.82 1017.87 1017.95 1018.09 1018.30 1018.57 1018.86 1019.12 1019.32 1019.41 1019.40 1019.32 1019.19 1019.08 1019.01 1019.00 1019.06 1019.16 1019.27 1019.37 1019.43 1019.47 1019.51 1019.56 1019.67
1012.98 1013.42 1013.95 1014.52 1015.04 1015.47 1015.79 1016.01 1016.15 1016.27 1016.42 1016.62 1016.86 1017.13 1017.39 1017.61 1017.76 1017.85 1017.89 1017.94 1018.01 1018.16 1018.37 1018.64 1018.92 1019.16 1019.33 1019.40 1019.37 1019.26 1019.12 1018.99 1018.90 1018.88 1018.92 1019.01 1019.10 1019.19 1019.27 1019.32 1019.38 1019.45 1019.58
1013.19 1013.63 1014.14 1014.66 1015.13 1015.50 1015.79 1015.99 1016.15 1016.31 1016.51 1016.76 1017.04 1017.34 1017.60 1017.80 1017.93 1017.99 1018.00 1018.02 1018.07 1018.19 1018.38 1018.62 1018.87 1019.09 1019.23 1019.28 1019.23 1019.11 1018.97 1018.83 1018.73 1018.70 1018.73 1018.80 1018.89 1018.99 1019.07 1019.14 1019.22 1019.32 1019.46
1013.38 1013.81 1014.29 1014.75 1015.16 1015.50 1015.76 1015.97 1016.17 1016.39 1016.66 1016.97 1017.30 1017.61 1017.87 1018.05 1018.13 1018.14 1018.11 1018.08 1018.10 1018.18 1018.33 1018.53 1018.75 1018.94 1019.05 1019.09 1019.03 1018.91 1018.76 1018.62 1018.53 1018.49 1018.51 1018.57 1018.65 1018.75 1018.84 1018.93 1019.03 1019.14 1019.29
1013.61 1014.01 1014.44 1014.84 1015.19 1015.49 1015.74 1015.98 1016.23 1016.52 1016.85 1017.21 1017.58 1017.90 1018.14 1018.28 1018.32 1018.28 1018.19 1018.11 1018.08 1018.13 1018.24 1018.41 1018.59 1018.75 1018.85 1018.87 1018.82 1018.70 1018.56 1018.43 1018.32 1018.28 1018.28 1018.33 1018.40 1018.49 1018.58 1018.68 1018.78 1018.90 1019.04
1013.91 1014.27 1014.63 1014.96 1015.25 1015.51 1015.76 1016.02 1016.32 1016.67 1017.06 1017.46 1017.84 1018.15 1018.36 1018.45 1018.44 1018.34 1018.21 1018.10 1018.03 1018.05 1018.14 1018.28 1018.44 1018.58 1018.67 1018.69 1018.64 1018.54 1018.40 1018.27 1018.17 1018.10 1018.09 1018.11 1018.16 1018.23 1018.32 1018.41 1018.51 1018.62 1018.74
1014.30 1014.60 1014.89 1015.14 1015.37 1015.59 1015.83 1016.11 1016.44 1016.83 1017.25 1017.66 1018.03 1018.30 1018.46 1018.50 1018.44 1018.31 1018.15 1018.02 1017.95 1017.96 1018.04 1018.18 1018.33 1018.47 1018.56 1018.59 1018.55 1018.45 1018.33 1018.20 1018.08 1018.00 1017.96 1017.96 1017.98 1018.03 1018.10 1018.17 1018.26 1018.35 1018.44
1014.77 1015.00 1015.21 1015.38 1015.54 1015.72 1015.95 1016.23 1016.58 1016.97 1017.39 1017.78 1018.10 1018.33 1018.43 1018.42 1018.32 1018.17 1018.01 1017.89 1017.84 1017.88 1017.98 1018.13 1018.30 1018.44 1018.54 1018.57 1018.54 1018.46 1018.34 1018.22 1018.10 1018.00 1017.94 1017.91 1017.91 1017.93 1017.97 1018.03 1018.08 1018.14 1018.20
1015.26 1015.43 1015.56 1015.66 1015.76 1015.90 1016.09 1016.36 1016.70 1017.08 1017.46 1017.81 1018.07 1018.23 1018.27 1018.22 1018.09 1017.95 1017.82 1017.74 1017.74 1017.82 1017.96 1018.14 1018.32 1018.48 1018.59 1018.63 1018.62 1018.55 1018.45 1018.33 1018.22 1018.12 1018.05 1018.00 1017.98 1017.99 1018.01 1018.04 1018.07 1018.09 1018.10
1015.71 1015.83 1015.90 1015.94 1015.99 1016.09 1016.26 1016.50 1016.81 1017.15 1017.48 1017.75 1017.94 1018.03 1018.02 1017.94 1017.81 1017.69 1017.60 1017.59 1017.65 1017.79 1017.98 1018.19 1018.40 1018.58 1018.70 1018.76 1018.76 1018.72 1018.64 1018.54 1018.44 1018.36 1018.29 1018.25 1018.23 1018.23 1018.24 1018.25 1018.25 1018.23 1018.18
1016.07 1016.16 1016.19 1016.20 1016.22 1016.29 1016.43 1016.64 1016.91 1017.19 1017.45 1017.66 1017.77 1017.80 1017.74 1017.64 1017.53 1017.45 1017.42 1017.48 1017.61 1017.80 1018.04 1018.29 1018.52 1018.71 1018.85 1018.93 1018.95 1018.94 1018.89 1018.83 1018.76 1018.71 1018.67 1018.65 1018.65 1018.65 1018.67 1018.66 1018.63 1018.56 1018.44
1016.31 1016.41 1016.43 1016.43 1016.43 1016.49 1016.61 1016.79 1017.00 1017.23 1017.42 1017.55 1017.60 1017.58 1017.50 1017.39 1017.31 1017.27 1017.31 1017.42 1017.61 1017.86 1018.13 1018.40 1018.65 1018.86 1019.01 1019.11 1019.17 1019.19 1019.19 1019.17 1019.16 1019.15 1019.16 1019.17 1019.20 1019.23 1019.26 1019.25 1019.19 1019.06 1018.86
1016.45 1016.57 1016.62 1016.63 1016.64 1016.69 1016.79 1016.94 1017.11 1017.28 1017.41 1017.48 1017.48 1017.42 1017.33 1017.24 1017.18 1017.19 1017.28 1017.44 1017.67 1017.95 1018.24 1018.53 1018.79 1019.01 1019.18 1019.31 1019.40 1019.47 1019.52 1019.56 1019.59 1019.64 1019.70 1019.76 1019.83 1019.89 1019.93 1019.92 1019.83 1019.65 1019.36
1016.50 1016.68 1016.78 1016.82 1016.86 1016.91 1017.00 1017.11 1017.24 1017.36 1017.44 1017.46 1017.43 1017.36 1017.28 1017.21 1017.18 1017.22 1017.34 1017.53 1017.79 1018.07 1018.37 1018.66 1018.93 1019.16 1019.35 1019.51 1019.64 1019.75 1019.85 1019.94 1020.03 1020.12 1020.23 1020.34 1020.45 1020.54 1020.59 1020.58 1020.46 1020.23 1019.85
1016.53 1016.78 1016.94 1017.03 1017.09 1017.15 1017.23 1017.32 1017.41 1017.48 1017.52 1017.52 1017.48 1017.41 1017.33 1017.28 1017.28 1017.35 1017.48 1017.68 1017.93 1018.21 1018.50 1018.79 1019.06 1019.30 1019.52 1019.71 1019.88 1020.03 1020.16 1020.29 1020.41 1020.54 1020.67 1020.81 1020.95 1021.07 1021.14 1021.13 1021.00 1020.72 1020.28
1016.58 1016.90 1017.12 1017.26 1017.35 1017.41 1017.48 1017.54 1017.60 1017.64 1017.66 1017.64 1017.60 1017.54 1017.48 1017.46 1017.47 1017.54 1017.68 1017.87 1018.10 1018.36 1018.63 1018.91 1019.18 1019.44 1019.68 1019.90 1020.10 1020.27 1020.42 1020.56 1020.69 1020.82 1020.97 1021.12 1021.28 1021.42 1021.51 1021.52 1021.39 1021.09 1020.60
1016.68 1017.06 1017.34 1017.52 1017.63 1017.70 1017.75 1017.79 1017.82 1017.83 1017.84 1017.82 1017.78 1017.74 1017.71 1017.69 1017.72 1017.79 1017.90 1018.07 1018.27 1018.50 1018.76 1019.03 1019.31 1019.58 1019.84 1020.08 1020.29 1020.47 1020.62 1020.74 1020.85 1020.96 1021.09 1021.24 1021.40 1021.56 1021.69 1021.72 1021.62 1021.34 1020.86
Thickness
5792 5793 5792 5790 5788 5786 5784 5783 5782 5780 5779 5777 5776 5775 5773 5771 5770 5768 5766 5764 5762 5760 5757 5755 5753 5752 5750 5749 5748 5747 5745 5744 5742 5740 5738 5737 5735 5733 5731 5730 5728 5727 5725
5797 5793 5791 5789 5786 5784 5782 5780 5779 5777 5776 5775 5773 5772 5770 5769 5767 5765 5763 5762 5760 5758 5756 5754 5752 5750 5749 5747 5746 5745 5743 5741 5740 5738 5736 5735 5733 5731 5729 5728 5726 5725 5723
5796 5791 5789 5787 5785 5782 5780 5778 5776 5774 5773 5772 5770 5769 5767 5766 5765 5763 5761 5759 5758 5756 5754 5752 5751 5749 5747 5746 5744 5743 5741 5739 5738 5736 5735 5733 5731 5729 5728 5726 5725 5723 5722
5794 5790 5787 5785 5782 5780 5778 5775 5773 5771 5770 5768 5767 5766 5764 5763 5762 5760 5758 5757 5755 5754 5752 5750 5749 5747 5746 5744 5743 5741 5739 5737 5736 5734 5733 5732 5730 5728 5727 5725 5723 5722 5721
5791 5787 5784 5782 5780 5777 5775 5773 5771 5769 5767 5765 5764 5762 5761 5760 5759 5757 5756 5755 5753 5751 5750 5748 5747 5745 5744 5743 5741 5739 5738 5736 5735 5733 5731 5730 5729 5727 5726 5724 5723 5721 5720
5788 5784 5782 5779 5777 5775 5772 5770 5768 5765 5764 5762 5760 5759 5758 5757 5756 5755 5753 5752 5751 5749 5748 5746 5745 5743 5742 5741 5740 5738 5737 5735 5733 5732 5730 5729 5728 5726 5725 5723 5722 5720 5719
5783 5781 5778 5776 5774 5771 5769 5767 5764 5762 5760 5758 5757 5755 5754 5753 5752 5751 5750 5749 5748 5747 5745 5744 5742 5741 5740 5739 5739 5737 5736 5734 5733 5732 5730 5728 5727 5726 5724 5723 5721 5720 5718
5780 5776 5774 5771 5769 5767 5765 5763 5761 5759 5756 5754 5753 5751 5750 5749 5748 5747 5747 5746 5745 5744 5743 5741 5740 5739 5738 5737 5737 5736 5735 5734 5732 5731 5729 5728 5727 5725 5723 5722 5720 5719 5717
5774 5772 5769 5767 5765 5763 5761 5759 5757 5755 5753 5751 5749 5747 5746 5745 5744 5743 5743 5742 5742 5741 5740 5738 5737 5736 5735 5735 5734 5734 5733 5732 5731 5729 5728 5727 5726 5725 5723 5721 5719 5718 5716
5769 5767 5765 5763 5761 5759 5756 5754 5753 5750 5748 5747 5746 5744 5742 5741 5740 5739 5739 5738 5738 5738 5737 5736 5735 5734 5733 5732 5732 5732 5732 5731 5730 5728 5727 5726 5725 5724 5722 5720 5718 5717 5716
5762 5761 5760 5758 5756 5754 5752 5749 5747 5745 5744 5742 5741 5740 5739 5738 5736 5736 5735 5735 5735 5734 5733 5732 5732 5731 5730 5730 5730 5730 5730 5729 5729 5728 5727 5726 5724 5723 5722 5720 5718 5716 5715
5754 5755 5756 5754 5752 5749 5748 5745 5742 5740 5739 5738 5737 5735 5734 5733 5732 5731 5730 5730 5730 5730 5730 5729 5728 5728 5728 5727 5727 5727 5728 5728 5727 5726 5726 5725 5725 5723 5721 5720 5718 5716 5715
5752 5751 5750 5750 5747 5745 5743 5740 5737 5735 5734 5732 5731 5729 5729 5728 5727 5726 5726 5725 5725 5725 5726 5726 5725 5725 5724 5724 5724 5724 5725 5725 5725 5725 5725 5724 5723 5722 5721 5719 5717 5716 5714
5746 5745 5745 5745 5743 5741 5739 5735 5733 5731 5729 5727 5726 5724 5724 5723 5722 5722 5721 5720 5720 5720 5721 5722 5721 5721 5720 5721 5721 5722 5722 5723 5723 5723 5723 5723 5722 5721 5720 5718 5716 5714 5712
5740 5739 5740 5740 5738 5736 5733 5731 5728 5726 5724 5722 5721 5720 5719 5718 5717 5717 5716 5715 5716 5716 5717 5718 5718 5717 5717 5718 5719 5719 5720 5719 5720 5720 5721 5721 5720 5719 5718 5716 5714 5713 5712
5734 5733 5734 5733 5732 5731 5728 5725 5723 5721 5719 5718 5717 5715 5714 5713 5713 5712 5711 5711 5711 5711 5713 5713 5713 5713 5714 5715 5716 5716 5716 5716 5717 5717 5718 5718 5718 5717 5715 5714 5713 5712 5710
5729 5729 5728 5727 5726 5725 5722 5719 5717 5716 5714 5713 5711 5711 5710 5709 5708 5707 5706 5706 5705 5706 5707 5708 5708 5708 5709 5710 5711 5712 5712 5712 5713 5713 5714 5714 5714 5713 5713 5712 5711 5710 5709
5725 5723 5723 5722 5720 5718 5716 5714 5712 5710 5708 5707 5707 5705 5705 5704 5703 5702 5701 5700 5700 5701 5702 5702 5703 5703 5704 5704 5705 5706 5708 5708 5709 5709 5710 5711 5710 5709 5709 5709 5709 5708 5707
5721 5718 5716 5715 5713 5711 5710 5708 5706 5704 5702 5701 5701 5700 5699 5698 5697 5697 5696 5695 5695 5695 5696 5697 5698 5698 5698 5699 5700 5701 5703 5704 5704 5705 5706 5706 5706 5706 5706 5705 5705 5704 5704
5715 5713 5710 5708 5707 5706 5704 5701 5699 5698 5696 5695 5695 5694 5693 5693 5692 5691 5691 5690 5691 5690 5690 5691 5692 5694 5694 5694 5696 5697 5698 5700 5701 5701 5701 5701 5702 5702 5702 5701 5700 5700 5700
5708 5705 5703 5702 5701 5700 5697 5694 5692 5690 5689 5688 5687 5687 5687 5686 5686 5685 5685 5685 5685 5685 5685 5687 5688 5688 5688 5690 5689 5689 5692 5694 5696 5697 5697 5697 5697 5697 5697 5696 5696 5696 5696
5701 5699 5697 5695 5694 5694 5692 5690 5687 5684 5682 5681 5681 5680 5680 5679 5679 5678 5678 5678 5678 5679 5680 5681 5682 5681 5682 5684 5683 5679 5678 5682 5687 5691 5691 5691 5691 5691 5691 5691 5691 5691 5691
5695 5693 5691 5688 5688 5687 5686 5684 5681 5678 5675 5673 5672 5672 5672 5672 5672 5671 5671 5672 5672 5672 5672 5675 5676 5675 5675 5678 5679 5676 5673 5672 5675 5681 5683 5684 5684 5684 5684 5684 5684 5684 5684
5688 5687 5684 5681 5680 5680 5679 5677 5674 5670 5666 5665 5664 5663 5664 5664 5664 5664 5665 5665 5665 5666 5666 5668 5670 5671 5672 5671 5673 5675 5674 5674 5670 5670 5674 5676 5677 5677 5677 5678 5678 5678 5678
5682 5678 5676 5673 5672 5672 5671 5670 5667 5664 5661 5659 5657 5656 5656 5656 5657 5657 5658 5658 5659 5659 5660 5662 5664 5665 5666 5666 5666 5667 5668 5668 5668 5666 5664 5666 5668 5669 5670 5671 5671 5672 5672
5673 5670 5668 5666 5664 5663 5662 5661 5659 5657 5654 5651 5649 5648 5648 5648 5648 5649 5650 5650 5651 5653 5654 5655 5657 5658 5659 5660 5660 5660 5660 5661 5661 5661 5660 5659 5659 5660 5663 5663 5664 5665 5666